Volver al catálogo

COSMOS 739

ActivoMilitarLEO
NORAD 7828·PAYLOAD·🇷🇺 Russia

Lanzado May 28, 1975 desde Plesetsk Cosmodrome

Loading…

Próximos Pases (próximas 24 horas)

TLE

ActualizadoSource: Space-Track

Época: Sep 14, 2026, 04:42 UTC

1 07828U 75045H   26257.19628318  .00000004  00000-0  12696-3 0  9997
2 07828  74.0219 352.1652 0031234 198.8381 180.3504 12.54208427348747

Sigue COSMOS 739 en tiempo real con AllMySat

Download on the App Store